Regional Weather Roundup
Issued by NWS Memphis, TN

Home | Current Version | Previous Version | Text Only | Print | Product List | Glossary On
Versions: 1 2 3 4 5 6 7 8 9 10 11 12 13 14 15 16 17 18 19 20 21 22 23 24 25 26 27 28 29 30 31 32 33 34 35 36 37 38 39 40 41 42 43 44 45 46 47 48 49 50
136
ASUS44 KMEG 231706
RWRMEG
WEATHER ROUNDUP FOR TENNESSEE
NATIONAL WEATHER SERVICE MEMPHIS TN
ISSUED BY NATIONAL WEATHER SERVICE LITTLE ROCK AR
1200 PM CDT TUE MAY 23 2017

TNZ002-004-019-021-049-052-054-088>092-231800-
WEST TENNESSEE

CITY           SKY/WX    TMP DP  RH WIND       PRES   REMARKS
MEMPHIS INT`L  LGT RAIN  74  56  53 SW7       29.77F
MILLINGTON     PTSUNNY   73  57  56 SW8       29.77F
JACKSON        PTSUNNY   73  58  59 W7        29.76F
DYERSBURG      CLOUDY    74  58  57 VRB6      29.77F
$$

TNZ008-025-027-028-033-062-065-066-231800-
NORTH MIDDLE TENNESSEE

CITY           SKY/WX    TMP DP  RH WIND       PRES   REMARKS
NASHVILLE      PTSUNNY   75  57  53 CALM      29.76F
SMYRNA         CLOUDY    71  63  75 CALM      29.76F
MURFREESBORO   NOT AVBL
CROSSVILLE     CLOUDY    63  59  87 VRB3      29.79F
$$

TNZ061-075-076-078-094-096-097-231800-
SOUTH MIDDLE TENNESSEE

CITY           SKY/WX    TMP DP  RH WIND       PRES   REMARKS
$$

TNZ017-018-042-046-047-231800-
NORTHEAST TENNESSEE

CITY           SKY/WX    TMP DP  RH WIND       PRES   REMARKS
TRI CITIES     LGT RAIN  66  63  90 CALM      29.79F FOG
$$

TNZ012-013-036-069-073-074-231800-
EAST CENTRAL TENNESSEE

CITY           SKY/WX    TMP DP  RH WIND       PRES   REMARKS
KNOXVILLE      NOT AVBL
OAK RIDGE      LGT RAIN  67  61  81 CALM      29.79F
$$

TNZ083-085-099-231800-
SOUTHEAST TENNESSEE

CITY           SKY/WX    TMP DP  RH WIND       PRES   REMARKS
CHATTANOOGA    DRIZZLE   68  65  90 S6        29.76F
$$

SKY/WX REPORTED AS FAIR MEANS FEW OR NO CLOUDS BELOW
12 THOUSAND FEET.




USA.gov is the U.S. government's official web portal to all federal, state and local government web resources and services.